Regional Weather Roundup
Issued by NWS Grand Forks, ND

Home | Current Version | Previous Version | Text Only | Print | Product List | Glossary On
Versions: 1 2 3 4 5 6 7 8 9 10 11 12 13 14 15 16 17 18 19 20 21 22 23 24 25 26 27 28 29 30 31 32 33 34 35 36 37 38 39 40 41 42 43 44 45 46 47 48 49 50
000
ASUS43 KFGF 140831
RWRFGF
PRAIRIE TO PINES  WEATHER ROUNDUP
NATIONAL WEATHER SERVICE EASTERN NORTH DAKOTA/GRAND FORKS ND
200 AM CST SUN FEB 14 2016

 **SATELLITE DATA USED TO AUGMENT SKY COVER AT AUTOMATED STATIONS**
 *****  WEATHER ACROSS EASTERN NORTH DAKOTA  *****

CITY           SKY/WX    TMP DP  RH WIND       PRES   REMARKS
GRAND FORKS    LGT SNOW  13   7  77 S20G26    29.98F WCI  -5
GRAND FRKS AFB CLOUDY    10   7  85 S23G30    29.94F WCI -10
DEVILS LAKE    LGT SNOW  12   9  85 S16       29.84F FOG     WCI  -4
FARGO          CLOUDY    14   6  70 SE18G25   30.00F WCI  -3
WAHPETON ARPT  CLOUDY    12   9  85 SE22G28   30.01F WCI  -7
$$

 ***** WEATHER ACROSS CENTRAL AND WESTERN NORTH DAKOTA  *****

CITY           SKY/WX    TMP DP  RH WIND       PRES   REMARKS
BISMARCK       CLOUDY    20  17  88 S3        29.79F FOG
MINOT          CLOUDY    22  15  75 CALM      29.73S
JAMESTOWN      LGT SNOW  13   9  84 S18       29.85F FOG     WCI  -4
MINOT AFB      CLOUDY    18  18 100 CALM      29.74S
GARRISON         N/A     21  20  96 NW6       29.75F WCI  13
WILLISTON      CLOUDY    30  27  88 W6        29.79F WCI  24
DICKINSON      CLOUDY    31  29  92 NW23G32   29.76S WCI  18
HETTINGER      CLOUDY    35  31  85 NW30G37   29.80S WCI  22
$$

 *****  OTHER AIRPORT OBSERVATIONS IN OUR AREA  *****

CITY           SKY/WX    TMP DP  RH WIND       PRES   REMARKS
WALHALLA       HVY SNOW  10  10 100 SE17      29.92F WCI  -7
GRAFTON AIRPOR LGT SNOW  12   9  85 S21G26    30.00F WCI  -6
VALLEY CITY AR NOT AVBL
CANDO          CLOUDY    12  10  92 S16       29.84F FOG     WCI  -4
CAVALIER APRT  NOT AVBL
GWINNER        CLOUDY    14  12  92 SE13      29.93F VSB 3/4 WCI   0
SHEYENNE NWR     N/A     11   7  83 S14       29.95S WCI  -5
ROLLA          LGT SNOW  10   7  85 S10       29.77F WCI  -3
 ***** THE ABOVE OBSERVATIONS ARE NON NWS ARE NOT QUALITY
       CONTROLLED AND MAY MIS-REPORT RAIN FOR SNOW...
$$

  *****  WEATHER ACROSS NORTHERN MINNESOTA  *****

CITY           SKY/WX    TMP DP  RH WIND       PRES   REMARKS
FLAG ISLAND    CLOUDY     3  -6  66 S21       30.05F WCI -18
WARROAD        CLOUDY     9  -4  56 SE14G20   30.04F WCI  -8
ROSEAU         CLOUDY    10   0  61 S16       30.02F WCI  -7
HALLOCK        CLOUDY    12   7  79 S22       29.99F WCI  -7
THF RVR FALLS  CLOUDY    10   5  79 SE15G21   30.01F WCI  -6
BAUDETTE       CLOUDY     2 -11  54 SE12      30.08F WCI -15
WASKISH        CLOUDY     7  -8  51 SE7       30.09F WCI  -5
CROOKSTON      LGT SNOW  12   9  85 S17       30.02F WCI  -5
STEPHEN NDAWN    N/A     10   7  85 SE17        N/A  WCI  -7
GREENBUSH NDAW   N/A     10   3  72 S16         N/A  WCI  -7
$$
  *****  WEATHER ACROSS CENTRAL AND WEST MINNESOTA  *****

CITY           SKY/WX    TMP DP  RH WIND       PRES   REMARKS
FOSSTON        CLOUDY    10   0  61 SE14      30.02F WCI  -5
BEMIDJI        CLOUDY     6  -5  59 SE12      30.07F WCI  -9
PARK RAPIDS    CLOUDY     9  -4  55 SE15      30.06F WCI  -8
ELBOW LAKE     FLURRIES  10   6  82 E18G24    30.03F WCI  -8
WADENA         CLOUDY     9  -2  61 SE14      30.06F WCI  -8
DETROIT LAKES  CLOUDY    12   5  73 SE15      30.02F WCI  -4
MOORHEAD       CLOUDY    12   7  79 S21G31    30.01F WCI  -6
FERGUS FALLS   CLOUDY    10   5  79 SE18G24   30.06F WCI  -8
MORRIS MN      FLURRIES  10   7  85 SE17      30.03F WCI  -7
STAPLES        CLOUDY     9  -6  52 SE10      30.10F WCI  -6
$$
  *****  WEATHER ELSEWHERE ACROSS MINNESOTA  *****

CITY           SKY/WX    TMP DP  RH WIND       PRES   REMARKS
DULUTH         CLOUDY    -2 -15  54 S7        30.22F WCI -15
INTRNTL FALLS  CLOUDY   -13 -20  71 SE7       30.16F WCI -29
ELY            CLOUDY   -20 -26  76 CALM      30.21S
CLOQUET        CLOUDY    -4 -17  54 E3        30.21F
WHEATON        LGT SNOW  12  10  92 SE21      30.02F WCI  -6
BRAINERD       CLOUDY     7  -7  52 SE8       30.15F WCI  -6
HIBBING        CLOUDY   -14 -18  82 SE5       30.20F WCI -26
ALEXANDRIA     CLOUDY     9   1  70 SE17G24   30.07F WCI  -9
SAINT CLOUD    CLOUDY     9  -4  55 SE12      30.18F WCI  -6
MINNEAPOLIS    CLOUDY     9  -5  53 SE10      30.24F WCI  -5
$$

  *****  WEATHER ACROSS SOUTH DAKOTA  *****

CITY           SKY/WX    TMP DP  RH WIND       PRES   REMARKS
SIOUX FALLS    CLOUDY    13   8  81 SE17G24   29.98F WCI  -4
BROOKINGS      LGT SNOW  10   7  85 SE21      29.94F FOG     WCI  -9
WATERTOWN      LGT SNOW  12   7  80 S20G26    29.92F VSB 3/4 WCI  -6
HURON          LGT SNOW  14  11  87 SE13G23   29.90F FOG     WCI   0
SISSETON         N/A     11   8  88 S17       29.98F WCI  -6
ABERDEEN       FOG       15  11  83 S22G41    29.90F VSB 1/2 WCI  -3
MITCHELL       SNOW      16  12  84 SE17      29.91F VSB 1/2 WCI   0
PIERRE         CLOUDY    24  23  96 SE6       29.80F FOG     WCI  17
MOBRIDGE       CLOUDY    19  16  88 SE10      29.78S WCI   7
RAPID CITY     CLEAR     39  27  62 NW20G30   29.87R
$$

  *****  SOME WEATHER IN NEARBY STATES *****

CITY           SKY/WX    TMP DP  RH WIND       PRES   REMARKS
GLASGOW MT     CLEAR     28  25  88 W6        29.82F WCI  22
GREAT FALLS MT CLOUDY    39  21  48 SW18      29.88F
CHEYENNE WY    CLEAR     33  17  51 NW16G30   30.02F WCI  23
SCOTTSBLUFF NE CLEAR     33  25  72 NW10      30.03S WCI  25
OMAHA NE       CLOUDY    20   5  52 SE21      30.10F WCI   4
DES MOINES IA  CLOUDY    16   8  71 SE12      30.21F WCI   3
DAVENPORT IA   CLOUDY    17   2  51 SE12      30.37F WCI   4
CHICAGO IL     CLOUDY    11  -2  56 E5        30.43F WCI   3
EAU CLAIRE WI  CLOUDY    -6 -13  71 CALM      30.32F
LA CROSSE WI   CLOUDY     6  -6  57 SE6       30.34F WCI  -4
$$

  *****  SOME NATIONAL WEATHER *****

CITY           SKY/WX    TMP DP  RH WIND       PRES   REMARKS
LA GUARDIA NY  PTCLDY     7  -7  52 NW23G30   30.35R WCI -14
RALEIGH NC     CLEAR     18  -1  43 CALM      30.45R
ATLANTA GA     CLOUDY    30   6  36 N7        30.34S WCI  23
NEW ORLEANS LA PTCLDY    48  38  68 E5        30.26F
OKLAHOMA CITY  PTCLDY    46  37  71 S20       29.91F
ALBUQUERQUE NM PTCLDY    49  13  23 NW7       30.10F
SALT LAKE CITY FOG       29  29 100 CALM      30.29  VSB 1/8
LOS ANGELES CA PTCLDY    53  50  89 CALM      30.06S FOG
BOISE ID       LGT RAIN  43  35  73 E6        30.18F
SEATTLE WA     CLOUDY    47  44  90 S15       30.09R FOG
$$

*** WEATHER ACROSS MANITOBA...SASKATCHEWAN AND ONTARIO ***
                ***ONTARIO***

CITY           SKY/WX    TMP DP  RH WIND       PRES   REMARKS
GERALDTON      CLEAR    -29 -35  75 CALM      30.29F
THUNDER BAY    MOCLDY   -18 -22  83 W6        30.35F WCI -33
SIOUX LOOKOUT  CLEAR    -11 -17  77 SE7       30.16F WCI -26
TORONTO        CLEAR     -9 -22  54 NW5       30.51S WCI -21
BIG TROUT LK   CLOUDY    -6 -13  71 S7        30.12F WCI -20
PICKLE LAKE    NOT AVBL
DRYDEN         CLEAR     -6 -13  71 S12       30.13F WCI -24
KENORA         MOCLDY     0 -13  55 S9        30.06F WCI -16
$$
                *** MANITOBA***

CITY           SKY/WX    TMP DP  RH WIND       PRES   REMARKS
BRANDON        LGT SNOW  10   9  92 SE8       29.82F VSB 3/4 WCI  -1
DAUPHIN        LGT SNOW   9   5  85 SE6       29.81F VSB 1   WCI  -1
ISLAND LAKE    NOT AVBL
PILOT MOUND      N/A     10   7  85 S18G24      N/A  WCI  -8
THE PAS        FLURRIES   9   1  72 S12       29.73F WCI  -6
THOMPSON       FLURRIES   1  -8  66 S7        29.76F WCI -11
WINNIPEG       CLOUDY    12   1  62 S22G31    29.96F WCI  -7
LYNN LAKE      LGT SNOW   5   3  92 S8G17     29.56F WCI  -8
CHURCHILL      CLOUDY     5  -4  66 SW16G22   29.77F WCI -14
$$
                ***SASKATCHEWAN***

CITY           SKY/WX    TMP DP  RH WIND       PRES   REMARKS
ESTEVAN        NOT AVBL
KINDERSLEY     PTCLDY    18  14  86 S10       29.71F WCI   6
LLOYDMINSTER   CLOUDY    28  23  80 W12G17    29.64F WCI  18
PRINCE ALBERT  CLOUDY    18  16  93 CALM      29.67F FOG
REGINA         FLURRIES  23  21  93 W7        29.73F WCI  15
YORKTON        FLURRIES  12   9  85 S8        29.72F WCI   1
N. BATTLEFORD  CLEAR     21 N/A N/A SE2       29.69S
LA RONGE       CLOUDY    16  14  93 S7        29.56F WCI   6
SASKATOON      PTCLDY    14  12  92 SW9       29.72F FOG     WCI   2
SWIFT CURRENT  MOCLDY    27  25  93 W10       29.73F WCI  17
$$
NOTE: THESE ARE AUTOMATED STATIONS WITH LIMITED QUALITY CONTROL
      "FAIR" INDICATES FEW OR NO CLOUDS BELOW 12,000 FEET WITH NO
      SIGNIFICANT WEATHER AND/OR OBSTRUCTIONS TO VISIBILITY.
      SKY/WX - SKY CONDITION AND SIGNIFICANT WEATHER.
      TMP - AIR TEMPERATURE.    DP   - DEWPOINT TEMPERATURE.
      RH  - RELATIVE HUMIDITY.  PRES - PRESSURE.
      HX  - HEAT INDEX.         WCI  - WIND CHILL INDEX.
$



USA.gov is the U.S. government's official web portal to all federal, state and local government web resources and services.